This demonstration page uses our WeatherBlox Daily Observations layout. Learn more.

Left ArrowRight Arrow

Hourly Observations for May 21, 2017

Temp ( °F °C ) Dew Point ( °F °C ) Humidity (%) Winds ( mph kmh ) Pressure ( in mb ) Visibility ( mi km ) Precip ( " mm )
12:53 am 00:53 Clear 68 20 51 10.6 55 55 E 14 22 29.94 1014 10 16 0.00 0.00
1:53 am 01:53 Clear 67 19.4 52 11.1 59 59 E 12 19 29.93 1014 10 16 0.00 0.00
2:53 am 02:53 Clear 65 18.3 53 11.7 66 66 E 12 19 29.93 1014 10 16 0.00 0.00
3:53 am 03:53 Clear 64 17.8 54 12.2 70 70 E 14 22 29.93 1014 10 16 0.00 0.00
4:53 am 04:53 Mostly Cloudy 66 18.9 54 12.2 65 65 ESE 10 17 29.93 1014 10 16 0.00 0.00
5:53 am 05:53 Mostly Cloudy 66 18.9 55 12.8 68 68 ESE 14 22 29.94 1014 10 16 0.00 0.00
6:53 am 06:53 Mostly Cloudy 65 18.3 56 13.3 73 73 ESE 13 20 29.96 1014 10 16 0.00 0.00
7:53 am 07:53 Cloudy 67 19.4 55 12.8 66 66 E 18 30 29.97 1015 10 16 0.00 0.00
8:53 am 08:53 Cloudy 69 20.6 54 12.2 59 59 ESE 15 24 29.98 1015 10 16 0.00 0.00
9:53 am 09:53 Cloudy 70 21.1 55 12.8 59 59 ESE 18 30 30.01 1016 10 16 0.00 0.00
10:53 am 10:53 Mostly Cloudy 72 22.2 55 12.8 55 55 E 15 24 30.00 1016 10 16 0.00 0.00
11:53 am 11:53 Cloudy 72 22.2 56 13.3 57 57 ESE 13 20 29.99 1016 10 16 0.00 0.00
12:34 pm 12:34 Cloudy with Nearby Thunderstorms 71 21.7 57 13.9 61 61 SE 18 30 29.97 1015 10 16 0.00 0.00
12:53 pm 12:53 Cloudy with Nearby Thunderstorms 71 21.7 57 13.9 61 61 SE 21 33 30.00 1016 9 14 0.00 0.00
1:09 pm 13:09 Cloudy with Light Rain 65 18.3 61 16.1 87 87 ESE 21 33 30.03 1017 4 6 0.00 0.03
1:50 pm 13:50 Cloudy 63 17 61 16 94 94 E 13 20 30.06 1018 10 16 0.00 0.03
1:53 pm 13:53 Cloudy 63 17.2 60 15.6 90 90 E 10 17 30.02 1017 10 16 0.00 0.03
2:16 pm 14:16 Cloudy 64 17.8 60 15.6 87 87 E 13 20 30.00 1016 10 16 0.00 0.00
2:53 pm 14:53 Partly Cloudy 67 19.4 58 14.4 73 73 E 17 28 29.99 1016 10 16 0.00 0.00
3:53 pm 15:53 Mostly Sunny 72 22.2 57 13.9 59 59 E 15 24 29.98 1015 10 16 0.00 0.00
4:17 pm 16:17 Partly Cloudy 73 22.8 57 13.9 57 57 ESE 17 28 29.91 1013 10 16 0.00 0.00
4:34 pm 16:34 Mostly Cloudy 75 23.9 57 13.9 54 54 SE 16 26 29.91 1013 10 16 0.00 0.00
4:53 pm 16:53 Partly Cloudy 75 23.9 57 13.9 54 54 E 18 30 29.94 1014 10 16 0.00 0.00
5:42 pm 17:42 Mostly Cloudy 74 23.3 57 13.9 56 56 ESE 18 30 29.88 1012 10 16 0.00 0.00
5:53 pm 17:53 Mostly Cloudy 74 23.3 58 14.4 57 57 ESE 17 28 29.93 1014 10 16 0.00 0.00
6:53 pm 18:53 Sunny 73 22.8 58 14.4 59 59 E 17 28 29.92 1013 10 16 0.00 0.00
7:53 pm 19:53 Sunny 71 21.7 57 13.9 61 61 ESE 15 24 29.93 1014 10 16 0.00 0.00
8:53 pm 20:53 Clear 67 19.4 56 13.3 68 68 SE 13 20 29.94 1014 10 16 0.00 0.00
9:53 pm 21:53 Clear 65 18.3 57 13.9 76 76 ESE 14 22 29.96 1015 10 16 0.00 0.00
10:53 pm 22:53 Clear 63 17.2 58 14.4 84 84 ESE 9 15 29.98 1015 10 16 0.00 0.00
11:53 pm 23:53 Clear 62 16.7 58 14.4 86 86 ESE 9 15 29.98 1015 10 16 0.00 0.00

Powered by AerisWeather